User: anonymous   Login
Location: C�mpuri de-Sus
(45.9500°N, 22.5500°E)
Time: 03:28:53
(UTC+00:00)
Language:

Feng Yun 1-1 Rocket - Orbit

View from above orbital plane
View from above orbital plane
View from above satellite
View from above satellite

Ground track
Ground track

The orbit data is extracted from the following two-line orbital elements,

1 19468U 88080B   22026.74056369  .00000151  00000-0  12208-3 0  9997
2 19468  99.1777  57.7921 0072164  56.2857  54.2027 14.03533760709596
Epoch (UTC): 26 January 2022 17:46:24
Eccentricity: 0.0072164
inclination: 99.1777°
perigee height: 829 km
apogee height: 934 km
right ascension of ascending node: 57.7921°
argument of perigee: 56.2857°
revolutions per day: 14.03533760
mean anomaly at epoch: 54.2027°
orbit number at epoch: 70959

The dashed part of the orbit path shows where the satellite is in the earth's shadow,  

DLR